Location: Eekst
(53.0191°N, 6.7366°E)
Time: 21:09:54
(UTC+00:00)

CZ-4C R/B - Pass Details

Date: 15 May 2026
Orbit: 474 x 1503 km, 63.4° (Epoch: 8 June)

Event Time Altitude Azimuth Distance (km) Brightness Sun altitude
Rises 20:53:59 0° 261° (W) 2,892 5.4 -10.5°
Reaches altitude 10° 20:56:09 10° 269° (W) 2,104 4.8 -10.7°
Maximum altitude 21:00:39 39° 339° (NNW) 1,181 3.7 -11.1°
Drops below altitude 10° 21:06:28 10° 48° (NE) 2,726 4.9 -11.6°
Sets 21:09:38 0° 55° (NE) 3,865 5.6 -11.9°
